ELEKTRON 1 DEB, 750

Orbit data source: Space-Track

ELEKTRON 1 DEB, 750 is space debris in LEO originally from a launch on Thu, 30 Jan 1964 UTC launched from the Tyuratam Missile And Space Complex (TTMTR). Debris objects in space refer to the collection of defunct objects orbiting the Earth. Examples of debris include non-operational satellites, rocket bodies, and fragments generated from explosions, collisions, or faulty payload assembly.

Loading next visibility...
Identifier
750, 1964-006C
Orbit
LEO
Country
Flag of CISCIS
Related business
Manufacturer
OKB-1
Mission
Spacecraft
Bus & Motor
ADAPTER, Unknown motor
Mass
Unknown
Launch date (UTC)
1964-01-30 (62 years ago)
Launch vehicle
Unknown
Launch site
Tyuratam Missile And Space Complex (TTMTR)
Object type
Payload
Rocket body
Debris
Shape & HBR
Unknown shape, 0.3 m
Radar Cross Section
Medium (>0.1 m² and <1 m²)

Expand to show TLE details & history
Last TLE update: 15 hours ago

TLE from 15 hours ago
0 ELEKTRON 1 DEB
1   750U 64006C   26126.26980652  .00025558  00000-0  24092-2 0  9997
2   750  60.7453  85.9568 1391097  44.2764 326.1370 12.49630814841415
Epoch: 2026-05-06T06:28Z
TLE epoch observation values (Epoch: 2026-05-06T06:28:31.283Z)
Latitude
-0°
Longitude
124.69374°
Altitude
617.758 km
Speed
7.949 km/s
True Right ascension
05h 43m 49s
True Declination
0° 00' 00"
Sunlit
Object was in daylight at epoch
Visualization orbit readout
Latitude
Unknown
Longitude
Unknown
Altitude
Unknown
Speed
Unknown
Apparent Right ascension
Unknown
Apparent Declination
Unknown
Sunlit
N/A
Visualization observer readout
Local Sidereal Time
05:42:02
Azimuth
Unknown
Elevation
Unknown
Doppler factor
Unknown
Orbital elements
Apogee altitude
2,556.312 km
Perigee altitude
374.137 km
Semi-major axis
7,843.362 km
Eccentricity
0.13911
Inclination
60.7453°
RAAN
85.9568°
Arg. of periapsis
44.2764°
True anomaly
315.82463°
Mean anomaly
326.137°
Eccentric anomaly
321.13576°
Mean motion
3.12457 °/min
Orbital period
115.22 mins
BSTAR
0.0024092
Loading maneuver chart data...
Computing Atmospheric mass density...

Documentation

Showing up to 5 results
|